Weather in Nashville

United States     36°09′53″N   86°46′59″W
temp.,
°C
wind,
m/s
gust,
m/s
humid.,
%
clouds,
%
prec.,
mm/h
press.,
hPa
HPBL,
m
6 may, thu
thu601:00+10n27780 0.0 1021198
04:00+9n24790 0.0 1020139
07:00+10ene1277100 0.0 1022121
10:00+15e115762 0.0 1021699
13:00+19w243870 0.0 10191699
16:00+20w364399 0.0 10162398
19:00+12w4119494 2.3 1016550
22:00+12nw5119250 0.1 1018908
7 may, fri
fri701:00+9nw411923 0.1 1020776
04:00+7nw39861 0.0 1019370
07:00+7wnw37810 0.0 1021227
10:00+14nw48560 0.0 10211194
13:00+17nw58425 0.0 10202223
16:00+18nw594218 0.0 10182548
19:00+15w37630 0.0 1017359
22:00+12wsw3117273 0.0 1018353
8 may, sat
sat801:00+14w41364100 0.0 1017822
04:00+12wnw2973100 0.0 1018473
07:00+11ne3692100 0.2 1020407
10:00+11e2384100 0.2 1021345
13:00+11ese3591100 0.6 1020353
16:00+12ese2596100 1.0 1018321
19:00+13se259773 2.3 1017310
22:00+11ese279882 0.0 1017177
9 may, sun
sun901:00+10ese2897100 0.0 1016207
04:00+11sse31494100 0.0 1013387
07:00+14s41691100 0.0 1013594
10:00+20ssw61668100 0.0 10121139
13:00+22ssw71664100 0.0 10101591
16:00+21ssw71672100 0.3 10081413
19:00+20sw6168293 1.3 10091139
22:00+19ssw51694100 4.3 1009820
10 may, mon
mon1001:00+18ssw61796100 8.6 1008955
04:00+17ssw61498100 7.8 1009908
07:00+14nnw5996100 11.5 1012516
10:00+12nw3793100 0.3 1014532
13:00+18nnw456394 0.3 10151232
16:00+17nnw456372 0.0 10161204
19:00+14n457194 0.0 1018881
22:00+12ne487475 0.0 1020569